When you browse on this site, cookies collect data to enhance your experience and personalize the content and advertising you see.
Visit our Privacy Policy to learn more. By continuing to use the site, you agree to this use of cookies and data.
  • Em Portugal
  • Lista de países
  • Para 7 dias
  • Temperatura da água
  • Mapa do tempo
  • Widgets de tempo
  • user-avatar
    Iniciar Sessão

    Previsão horária em Ilebo

    Hoje, 10 Dezembro, Terça-feira

    Tempo Temperatura Precipitação Vento Pressão Humidade
    00:00 +24°C° 0 mm 1 m/s 721 mmHg 46%
    01:00 +24°C° 0 mm 1 m/s 722 mmHg 45%
    02:00 +24°C° 0 mm 1 m/s 721 mmHg 44%
    03:00 +25°C° 0 mm 1 m/s 721 mmHg 44%
    04:00 +25°C° 0 mm 1 m/s 721 mmHg 43%
    05:00 +25°C° 0 mm 1 m/s 722 mmHg 44%
    06:00 +25°C° 0 mm 1 m/s 722 mmHg 45%
    07:00 +26°C° 0 mm 1 m/s 723 mmHg 43%
    08:00 +29°C° 0 mm 1 m/s 723 mmHg 37%
    09:00 +31°C° 0 mm 2 m/s 723 mmHg 30%
    10:00 +35°C° 0 mm 2 m/s 723 mmHg 23%
    11:00 +36°C° 0 mm 2 m/s 722 mmHg 22%
    12:00 +36°C° 0 mm 1 m/s 721 mmHg 21%
    13:00 +37°C° 0 mm 1 m/s 721 mmHg 20%
    14:00 +36°C° 0 mm 1 m/s 720 mmHg 22%
    15:00 +36°C° 0 mm 1 m/s 720 mmHg 23%
    16:00 +35°C° 0 mm 1 m/s 719 mmHg 25%
    17:00 +32°C° 0 mm 1 m/s 720 mmHg 30%
    18:00 +30°C° 0 mm 1 m/s 720 mmHg 35%
    19:00 +27°C° 0 mm 1 m/s 720 mmHg 39%
    20:00 +27°C° 0 mm 1 m/s 721 mmHg 40%
    21:00 +26°C° 0 mm 1 m/s 721 mmHg 40%
    22:00 +26°C° 0 mm 1 m/s 722 mmHg 41%
    23:00 +25°C° 0 mm 1 m/s 721 mmHg 42%

    Amanhã, 11 Dezembro, Quarta-feira

    Tempo Temperatura Precipitação Vento Pressão Humidade
    00:00 +25°C° 0 mm 1 m/s 721 mmHg 44%
    01:00 +24°C° 0 mm 1 m/s 720 mmHg 45%
    02:00 +24°C° 0 mm 1 m/s 720 mmHg 46%
    03:00 +23°C° 0 mm 1 m/s 720 mmHg 47%
    04:00 +23°C° 0 mm 1 m/s 720 mmHg 49%
    05:00 +23°C° 0 mm 1 m/s 721 mmHg 50%
    06:00 +24°C° 0 mm 1 m/s 722 mmHg 51%
    07:00 +24°C° 0 mm 1 m/s 723 mmHg 52%
    08:00 +27°C° 0 mm 1 m/s 723 mmHg 50%
    09:00 +30°C° 0 mm 1 m/s 724 mmHg 48%
    10:00 +33°C° 0 mm 1 m/s 724 mmHg 45%
    11:00 +34°C° 0 mm 1 m/s 723 mmHg 42%
    12:00 +35°C° 0 mm 1 m/s 722 mmHg 39%
    13:00 +36°C° 0 mm 1 m/s 721 mmHg 35%
    14:00 +35°C° 0 mm 1 m/s 721 mmHg 36%
    15:00 +34°C° 0 mm 1 m/s 721 mmHg 37%
    16:00 +34°C° 0 mm 1 m/s 720 mmHg 38%
    17:00 +32°C° 0 mm 1 m/s 721 mmHg 44%
    18:00 +30°C° 0 mm 1 m/s 721 mmHg 50%
    19:00 +28°C° 0 mm 1 m/s 721 mmHg 57%
    20:00 +27°C° 0 mm 2 m/s 722 mmHg 60%
    21:00 +27°C° 0 mm 2 m/s 722 mmHg 64%
    22:00 +26°C° 0 mm 3 m/s 723 mmHg 67%
    23:00 +26°C° 0 mm 2 m/s 722 mmHg 70%

    Depois de amanhã, 12 Dezembro, Quinta-feira

    Tempo Temperatura Precipitação Vento Pressão Humidade
    00:00 +26°C° 0 mm 2 m/s 722 mmHg 73%
    01:00 +25°C° 0 mm 1 m/s 721 mmHg 76%
    02:00 +25°C° 0 mm 1 m/s 721 mmHg 78%
    03:00 +25°C° 0 mm 1 m/s 721 mmHg 79%
    04:00 +25°C° 0 mm 1 m/s 721 mmHg 81%
    05:00 +25°C° 0 mm 1 m/s 721 mmHg 80%
    06:00 +26°C° 0 mm 1 m/s 722 mmHg 79%
    07:00 +26°C° 0 mm 1 m/s 722 mmHg 77%
    08:00 +28°C° 0 mm 1 m/s 723 mmHg 72%
    09:00 +29°C° 0 mm 1 m/s 723 mmHg 66%
    10:00 +31°C° 0 mm 1 m/s 723 mmHg 60%
    11:00 +33°C° 0 mm 1 m/s 722 mmHg 53%
    12:00 +35°C° 0 mm 1 m/s 722 mmHg 45%
    13:00 +37°C° 0 mm 1 m/s 721 mmHg 38%
    14:00 +36°C° 0 mm 1 m/s 721 mmHg 40%
    15:00 +35°C° 0 mm 1 m/s 720 mmHg 41%
    16:00 +34°C° 0 mm 1 m/s 720 mmHg 42%
    17:00 +32°C° 0 mm 1 m/s 720 mmHg 49%
    18:00 +30°C° 0 mm 1 m/s 720 mmHg 55%
    19:00 +28°C° 0 mm 2 m/s 721 mmHg 61%
    20:00 +27°C° 0 mm 2 m/s 721 mmHg 64%
    21:00 +27°C° 0 mm 1 m/s 721 mmHg 66%
    22:00 +26°C° 0 mm 1 m/s 721 mmHg 69%
    23:00 +26°C° 0 mm 1 m/s 721 mmHg 71%

    13 Dezembro, Sexta-feira

    Tempo Temperatura Precipitação Vento Pressão Humidade
    00:00 +25°C° 0 mm 1 m/s 721 mmHg 74%
    01:00 +25°C° 0 mm 1 m/s 721 mmHg 76%
    02:00 +25°C° 0 mm 1 m/s 721 mmHg 78%
    03:00 +24°C° 0 mm 1 m/s 721 mmHg 79%
    04:00 +24°C° 0 mm 1 m/s 721 mmHg 81%
    05:00 +24°C° 0 mm 1 m/s 721 mmHg 79%
    06:00 +25°C° 0 mm 1 m/s 722 mmHg 77%
    07:00 +26°C° 0 mm 1 m/s 723 mmHg 75%
    08:00 +28°C° 0 mm 1 m/s 723 mmHg 67%
    09:00 +30°C° 0 mm 1 m/s 723 mmHg 58%
    10:00 +33°C° 0 mm 1 m/s 723 mmHg 50%
    11:00 +35°C° 0 mm 1 m/s 723 mmHg 45%
    12:00 +36°C° 0 mm 1 m/s 722 mmHg 40%
    13:00 +39°C° 0 mm 1 m/s 721 mmHg 34%
    14:00 +37°C° 0 mm 1 m/s 721 mmHg 36%
    15:00 +36°C° 0 mm 1 m/s 720 mmHg 37%
    16:00 +35°C° 0 mm 1 m/s 720 mmHg 38%
    17:00 +33°C° 0 mm 1 m/s 720 mmHg 45%
    18:00 +31°C° 0 mm 1 m/s 720 mmHg 51%
    19:00 +29°C° 0 mm 1 m/s 720 mmHg 58%
    20:00 +28°C° 0 mm 1 m/s 721 mmHg 59%
    21:00 +28°C° 0 mm 1 m/s 721 mmHg 61%
    22:00 +27°C° 0 mm 1 m/s 721 mmHg 63%
    23:00 +27°C° 0 mm 1 m/s 721 mmHg 65%

    14 Dezembro, Sábado

    Tempo Temperatura Precipitação Vento Pressão Humidade
    00:00 +26°C° 0 mm 1 m/s 721 mmHg 67%
    01:00 +26°C° 0 mm 1 m/s 721 mmHg 69%
    02:00 +23°C° 0 mm 0 m/s 721 mmHg 71%
    03:00 +23°C° 0 mm 0 m/s 721 mmHg 74%
    04:00 +22°C° 0 mm 0 m/s 721 mmHg 76%
    05:00 +23°C° 0 mm 0 m/s 722 mmHg 74%
    06:00 +24°C° 0 mm 0 m/s 722 mmHg 73%
    07:00 +24°C° 0 mm 0 m/s 723 mmHg 71%
    08:00 +26°C° 0 mm 0 m/s 723 mmHg 63%
    09:00 +28°C° 0 mm 0 m/s 723 mmHg 56%
    10:00 +30°C° 0 mm 0 m/s 724 mmHg 49%
    11:00 +32°C° 0 mm 0 m/s 723 mmHg 40%
    12:00 +35°C° 0 mm 0 m/s 722 mmHg 31%
    13:00 +37°C° 0 mm 0 m/s 722 mmHg 22%
    14:00 +36°C° 0 mm 0 m/s 721 mmHg 22%
    15:00 +35°C° 0 mm 0 m/s 720 mmHg 22%
    16:00 +34°C° 0 mm 0 m/s 720 mmHg 22%
    17:00 +34°C° 0 mm 1 m/s 720 mmHg 29%
    18:00 +31°C° 0 mm 1 m/s 720 mmHg 36%
    19:00 +29°C° 0 mm 1 m/s 720 mmHg 43%
    20:00 +28°C° 0 mm 1 m/s 720 mmHg 49%
    21:00 +27°C° 0 mm 1 m/s 721 mmHg 55%
    22:00 +26°C° 0 mm 1 m/s 721 mmHg 61%
    23:00 +26°C° 0 mm 1 m/s 721 mmHg 65%

    15 Dezembro, Domingo

    Tempo Temperatura Precipitação Vento Pressão Humidade
    00:00 +25°C° 0 mm 1 m/s 721 mmHg 68%
    01:00 +25°C° 0 mm 1 m/s 721 mmHg 72%
    02:00 +25°C° 0 mm 1 m/s 721 mmHg 72%
    03:00 +25°C° 0 mm 1 m/s 721 mmHg 73%
    04:00 +25°C° 0 mm 1 m/s 721 mmHg 74%
    05:00 +25°C° 0 mm 1 m/s 721 mmHg 73%
    06:00 +26°C° 0 mm 1 m/s 722 mmHg 73%
    07:00 +26°C° 0 mm 1 m/s 722 mmHg 73%
    08:00 +27°C° 0 mm 0 m/s 722 mmHg 64%
    09:00 +30°C° 0 mm 0 m/s 723 mmHg 55%
    10:00 +33°C° 0 mm 0 m/s 723 mmHg 45%
    11:00 +34°C° 0 mm 0 m/s 722 mmHg 42%
    12:00 +37°C° 0 mm 1 m/s 722 mmHg 38%
    13:00 +39°C° 0 mm 1 m/s 721 mmHg 35%
    14:00 +37°C° 0 mm 1 m/s 720 mmHg 37%
    15:00 +36°C° 0 mm 2 m/s 720 mmHg 39%
    16:00 +35°C° 0 mm 2 m/s 719 mmHg 41%
    17:00 +32°C° 0 mm 2 m/s 719 mmHg 47%
    18:00 +30°C° 0 mm 1 m/s 719 mmHg 53%
    19:00 +28°C° 0 mm 1 m/s 720 mmHg 58%
    20:00 +28°C° 0 mm 1 m/s 720 mmHg 60%
    21:00 +28°C° 0 mm 1 m/s 720 mmHg 61%
    22:00 +27°C° 0 mm 1 m/s 720 mmHg 63%
    23:00 +27°C° 0 mm 1 m/s 720 mmHg 65%
    Mostrar mais